Regional Weather Roundup
Issued by NWS Kansas City/Pleasant Hill, MO

Home | Current Version | Previous Version | Text Only | Print | Product List | Glossary On
Versions: 1 2 3 4 5 6 7 8 9 10 11 12 13 14 15 16 17 18 19 20 21 22 23 24 25 26 27 28 29 30 31 32 33 34 35 36 37 38 39 40 41 42 43 44 45 46 47
000
ASUS43 KEAX 231910
RWREAX

WEATHER ROUNDUP FOR EASTERN KANSAS AND NORTHWEST MISSOURI
NATIONAL WEATHER SERVICE KANSAS CITY/PLEASANT HILL MO
200 PM CDT MON MAY 23 2016

KSZ040-057-103>105-MOZ028-029-037-043-232000-
...KANSAS CITY METROPOLITAN AREA...

CITY           SKY/WX    TMP DP  RH WIND       PRES   REMARKS
K.C. INTL      TSTM      64  62  93 S13       29.94R FOG
K.C. DOWNTOWN  TSTM      65  63  93 SW6       29.95R FOG
LEES SUMMIT    CLOUDY    71  59  65 W12       29.95R
OLATHE - IXD   TSTM      63  62  97 S8        29.94F FOG
OLATHE - OJC   TSTM      62  61  96 S7        29.95S FOG
LAWRENCE       RAIN      64  63  96 SE14      29.90F FOG

$$

MOZ001>008-011>017-020>025-030>033-038>040-044>046-053-054-232000-
...NORTHERN AND CENTRAL MISSOURI...

CITY           SKY/WX    TMP DP  RH WIND       PRES   REMARKS
ST. JOSEPH     LGT RAIN  66  61  84 S17G26    29.91R
MOSBY          CLOUDY    68  61  77 W6        29.94R
WARRENSBURG    CLOUDY    77  59  53 S13       29.93R
WHITEMAN AFB   PTSUNNY   79  61  52 S10       29.91F
CLINTON        CLOUDY    77  59  53 S8        29.93R
SEDALIA        CLOUDY    78  57  48 S17       29.94F
WARSAW         NOT AVBL
CHILLICOTHE      N/A     78  59  51 VRB7      29.91S
KIRKSVILLE     MOSUNNY   79  55  43 S12       29.94S

$$

MOZ041-047>049-056>058-063>065-088>090-097-232000-
...EASTERN AND SOUTHERN MISSOURI...

CITY           SKY/WX    TMP DP  RH WIND       PRES   REMARKS
ST. LOUIS INTL PTSUNNY   83  50  31 S10G18    29.97F
SPIRIT OF STL  MOSUNNY   82  54  37 S8        29.95F
COLUMBIA       CLOUDY    78  54  43 S10       29.96S
JEFFERSON CITY CLOUDY    78  52  40 S14       29.94F
ROLLA          CLOUDY    75  55  49 S9        29.97S
OSAGE BEACH      N/A    N/A N/A N/A SE12        N/A
SPRINGFIELD    CLOUDY    77  56  48 SE16G24   29.92F
BRANSON        PTSUNNY   77  55  47 SE16      29.93F
JOPLIN         CLOUDY    75  59  57 S10       29.91S
WEST PLAINS    CLOUDY    76  50  40 S10       29.99F

$$

IAZ060-094-KSZ022-034>040-054-083-096-NEZ052-066-093-232000-
...KANSAS...SOUTHEAST NEBRASKA AND IOWA...

CITY           SKY/WX    TMP DP  RH WIND       PRES   REMARKS
TOPEKA         LGT RAIN  67  62  84 E26       29.75F
MANHATTAN      CLOUDY    70  63  78 SW5       29.79R
EMPORIA        LGT RAIN  63  60  90 SE17      29.80F
CHANUTE        LGT RAIN  68  63  84 CALM      29.95R
WICHITA        CLOUDY    65  62  90 S17       29.85F
OMAHA          CLOUDY    71  64  78 SW6       29.79R
LINCOLN        CLOUDY    78  68  71 S15       29.78F
FALLS CITY     CLOUDY    73  62  68 S20G28    29.81F
LAMONI         CLOUDY    68  60  75 S10       29.91R
DES MOINES     CLOUDY    78  59  51 S21G29    29.86F

$$




USA.gov is the U.S. government's official web portal to all federal, state and local government web resources and services.